Temperature
6 6 6 7 8 9 9 9 9 10 11 11 10 11 11 13 14 14 15 16 16 17 17 17 17 17 17 17 16 16 16 16 15 15 15 15 15 15 14 14 14 14 14 14
5 5 7 8 8 9 9 8 9 10 11 11 10 10 11 12 13 14 14 15 16 16 17 17 17 17 17 17 16 16 16 16 15 15 15 15 15 15 15 14 14 14 14 14
5 6 7 8 8 8 8 8 8 9 10 10 10 10 10 11 12 14 15 15 16 16 16 16 16 16 16 16 16 16 16 15 15 15 15 14 14 14 14 14 14 14 14 14
5 6 7 7 7 8 8 9 9 9 9 9 9 8 9 10 11 11 13 14 15 15 16 16 16 16 16 16 16 15 15 15 15 15 15 14 14 14 14 15 14 14 14 14
5 6 7 7 8 8 8 9 9 9 8 8 8 8 8 9 10 11 12 13 14 15 15 15 15 15 15 15 15 15 15 15 15 15 14 14 14 14 14 14 14 14 14 14
5 6 7 7 8 8 9 9 8 8 7 8 8 8 8 8 10 11 11 13 13 14 14 14 14 14 14 14 14 14 14 14 14 14 14 14 14 14 14 14 14 14 14 13
5 6 7 7 7 8 8 7 7 7 7 7 8 8 8 9 10 10 10 11 13 13 13 13 13 13 13 13 13 13 13 13 13 13 13 13 13 13 13 13 13 13 13 13
5 5 6 7 7 7 7 7 7 7 7 7 8 7 8 9 9 11 11 12 12 12 12 12 12 12 12 12 12 12 12 12 13 12 12 12 12 12 12 12 12 12 12 12
5 6 7 7 8 8 7 7 7 6 6 6 7 8 9 9 8 8 9 10 10 11 11 11 11 11 11 11 11 11 11 11 12 12 12 12 12 12 12 12 11 11 11 11
6 6 6 7 8 7 7 7 6 6 6 7 8 8 8 9 8 8 8 9 10 10 10 11 10 10 10 10 10 10 10 11 11 11 11 11 11 11 11 11 11 10 10 10
6 6 6 6 6 7 7 7 6 6 6 6 7 8 9 8 8 7 8 9 10 10 10 10 10 10 9 9 9 9 10 10 10 10 10 10 10 10 10 10 10 10 10 9
6 5 5 6 6 7 7 7 6 6 6 5 6 7 9 8 8 8 8 9 10 10 10 10 9 9 9 9 9 9 9 9 9 9 9 9 9 9 9 9 9 9 9 8
7 6 5 6 6 6 7 7 7 7 6 5 5 7 8 7 8 9 9 9 10 10 9 9 9 9 8 8 8 8 8 8 8 8 8 8 8 8 8 8 8 8 8 7
8 6 5 6 6 6 6 7 7 6 5 5 6 7 8 8 8 8 9 10 10 10 9 9 9 8 8 8 7 7 7 7 7 7 7 7 7 7 7 7 7 7 7 6
7 6 7 7 7 7 7 7 7 6 6 6 7 7 8 8 7 8 9 9 9 9 9 9 8 8 8 7 7 7 7 6 6 6 6 6 6 6 6 6 6 6 5 5
6 7 7 7 7 7 7 7 7 7 7 7 7 8 8 8 9 8 9 9 9 9 9 9 8 8 7 7 7 6 6 6 5 5 5 5 5 5 5 5 5 5 5 4
6 6 6 6 7 7 6 7 7 7 7 7 7 8 8 8 8 9 9 9 10 10 9 9 8 8 7 7 6 6 5 5 4 4 4 4 4 4 4 4 4 4 4 4
6 6 5 5 6 6 7 8 7 7 7 7 8 8 8 8 9 10 10 10 10 9 9 9 8 7 7 6 5 5 4 4 4 4 4 4 4 3 3 3 3 3 3 3
6 6 6 5 5 6 7 8 8 7 7 7 7 8 8 9 8 8 9 9 9 9 9 8 8 7 6 6 5 4 4 3 3 3 3 3 3 3 3 3 2 2 2 2
6 5 5 5 5 5 7 8 8 8 7 7 7 7 8 8 6 7 8 9 9 8 8 8 7 6 6 5 4 4 3 3 3 3 3 3 2 2 2 2 2 1 1 1
5 5 5 5 5 5 7 8 8 7 7 7 8 8 8 7 7 8 8 8 8 8 7 7 6 6 5 4 4 3 3 3 2 2 2 2 2 2 1 1 1 1 0 0
5 5 5 5 5 5 7 7 7 7 7 7 8 8 8 8 8 7 7 7 7 7 6 6 5 5 4 4 3 3 3 2 2 2 2 1 1 1 1 1 0 0 -0 -0
5 5 5 5 6 6 7 7 8 8 7 7 7 7 7 7 7 7 7 7 6 6 5 5 4 4 4 3 3 3 2 2 2 1 1 1 1 1 1 0 0 -0 -0 -1
5 5 5 5 5 6 7 7 7 7 7 7 7 7 7 7 7 6 6 6 6 5 5 4 4 4 3 3 3 2 2 2 1 1 1 1 1 0 0 -0 -0 -0 -0 -1
5 5 5 5 5 6 6 7 7 7 7 7 6 6 6 6 6 6 5 5 5 5 4 4 4 4 3 3 2 2 2 1 1 1 1 0 0 0 -0 -0 -0 -0 -1 -1
4 4 5 5 5 5 6 6 6 6 6 6 6 6 6 5 5 5 5 5 5 4 4 4 3 3 3 2 2 2 1 1 1 1 1 0 0 -0 -0 -0 -0 -1 -1 -1
Wind_Speed
3 4 8 11 10 5 6 6 6 6 4 7 9 10 9 8 6 8 9 8 8 8 6 4 5 6 6 6 7 8 7 7 6 4 5 5 5 4 4 5 10 12 13 14
3 5 7 6 6 5 6 6 5 3 4 7 7 11 10 10 10 10 10 10 10 8 5 4 3 4 5 6 6 7 7 7 6 5 5 3 3 3 4 4 7 10 11 12
5 3 6 8 8 8 6 8 7 5 3 3 3 7 11 10 9 9 9 10 9 10 9 7 5 5 5 5 5 6 6 6 5 5 3 2 2 1 2 4 4 6 9 10
2 3 6 9 9 7 6 7 7 6 6 5 6 5 9 10 11 13 13 11 10 9 8 6 5 5 4 4 3 4 4 4 4 4 5 6 6 6 5 4 4 4 6 7
3 3 7 9 7 8 5 4 5 4 5 2 4 4 8 6 12 16 15 13 10 8 8 7 6 5 4 3 3 3 4 3 2 3 5 6 5 5 3 2 3 4 3 4
1 1 3 4 4 6 4 5 5 3 2 4 7 6 7 6 11 10 12 12 10 8 7 6 5 5 4 4 3 3 4 3 2 3 3 4 5 4 2 2 3 3 3 3
1 1 1 3 5 3 5 6 3 3 4 6 6 6 9 9 9 11 11 10 9 9 9 7 6 5 4 4 3 3 4 3 2 3 2 2 3 3 4 3 3 3 2 3
4 3 4 3 5 6 7 6 6 6 6 3 5 8 8 7 5 4 7 9 10 9 8 8 7 6 5 4 4 4 4 3 3 3 2 2 1 1 2 2 2 2 2 3
5 3 2 3 3 7 7 5 3 3 2 2 5 6 6 2 3 5 8 10 9 9 8 7 6 6 5 5 4 4 4 3 3 3 3 3 2 1 1 0 0 0 1 1
3 4 2 2 4 2 4 6 4 4 5 4 4 5 5 5 5 6 8 9 8 8 7 7 6 5 4 4 4 4 4 4 4 4 3 3 3 3 3 3 3 2 2 2
3 4 3 3 5 7 5 4 4 4 3 4 3 6 5 9 9 9 8 8 9 8 8 6 5 5 5 5 5 4 4 4 4 4 4 5 5 5 5 5 4 4 4 4
4 3 3 2 1 3 4 6 6 5 4 4 3 6 5 6 8 8 8 7 7 8 7 6 6 6 5 5 4 4 4 4 3 4 5 5 5 6 6 6 5 5 5 5
5 4 4 2 1 2 4 5 5 3 3 4 4 6 4 3 6 7 8 8 7 7 7 6 6 5 5 4 4 4 3 3 3 4 5 6 6 6 6 6 6 6 6 7
3 3 5 8 6 7 5 7 7 6 4 4 6 6 3 3 6 7 8 8 8 7 7 7 6 5 5 4 4 4 3 3 4 5 6 5 5 5 5 6 6 6 6 7
3 2 2 3 4 6 6 8 9 9 8 7 6 7 8 8 9 9 8 8 7 7 7 8 7 6 5 5 4 4 4 4 5 5 5 5 5 5 6 6 6 7 7 7
2 1 0 1 2 4 4 8 10 10 8 8 6 7 6 5 5 6 8 8 8 8 8 8 8 7 7 6 5 5 4 4 5 5 5 5 5 6 6 6 6 7 7 7
0 2 2 1 1 2 4 8 11 7 6 8 11 10 4 5 7 9 9 9 9 8 8 8 8 8 7 7 7 6 5 5 6 6 5 5 5 6 6 6 7 7 6 7
3 2 2 1 1 4 6 3 6 8 8 9 7 6 7 8 7 5 6 8 8 8 8 7 7 6 6 6 6 6 6 6 6 6 5 5 6 6 6 6 6 6 5 6
4 4 3 2 2 5 6 3 3 5 5 6 8 6 5 5 4 0 1 4 6 6 6 6 6 6 6 7 7 7 6 6 6 6 6 6 6 7 6 6 6 5 5 5
3 3 3 3 2 4 4 3 1 3 3 3 5 6 6 7 4 4 3 3 4 5 5 5 6 6 7 6 7 8 7 6 6 6 6 6 6 7 7 6 5 4 5 5
2 2 3 3 3 5 5 2 3 3 4 2 2 4 5 5 4 3 5 3 4 4 4 6 6 6 6 7 8 7 7 6 6 6 6 6 6 7 7 6 5 5 5 5
5 4 4 4 4 6 3 3 4 4 1 2 3 3 4 4 4 4 4 4 4 4 4 5 5 5 5 7 8 7 7 6 7 7 7 7 6 6 6 6 5 5 6 5
4 5 4 6 6 3 1 3 2 3 3 2 3 3 4 4 3 3 3 3 4 4 5 4 5 5 5 6 7 8 7 7 8 7 7 7 6 5 6 6 6 5 4 4
3 1 2 2 3 2 1 1 2 3 3 3 3 3 3 3 2 2 2 3 4 4 5 5 6 6 6 6 7 7 8 8 8 8 7 7 7 6 5 5 5 5 5 4
4 2 2 3 2 1 1 1 3 3 4 4 3 2 2 2 1 2 2 3 4 4 4 5 7 7 7 7 7 7 8 9 9 8 7 6 6 6 5 4 4 5 4 5
4 4 4 5 4 4 4 3 4 4 3 2 2 1 1 0 2 2 3 3 3 4 4 5 6 7 7 8 8 8 9 10 9 8 7 6 5 5 5 5 3 4 4 6
Wind_Direction
144 169 197 197 198 183 154 153 175 202 200 176 209 232 245 250 242 244 245 238 232 232 228 206 188 176 168 170 173 180 182 185 176 175 181 187 199 200 201 204 207 208 209 206
137 216 214 192 193 179 162 167 183 215 211 188 216 240 246 243 239 232 232 232 226 224 218 210 195 173 172 177 176 175 183 184 185 188 186 185 184 199 204 204 210 212 213 213
178 203 196 193 195 188 186 186 190 189 187 183 176 260 249 248 240 242 234 224 218 210 205 202 192 178 163 170 178 177 178 180 185 184 169 149 146 171 201 215 219 220 219 218
192 222 188 189 196 182 199 193 192 183 155 205 183 237 257 234 240 237 234 225 215 205 192 184 174 164 156 165 160 159 161 164 176 173 172 178 192 208 217 220 226 236 231 231
198 186 174 189 195 180 191 162 160 170 160 170 180 207 273 235 231 235 229 221 213 197 178 167 158 148 135 128 122 121 122 129 148 158 174 184 201 216 223 222 229 237 243 241
210 217 176 182 187 187 158 96 79 72 110 220 204 191 266 230 223 230 222 211 198 174 155 144 135 125 112 101 98 100 107 102 108 135 150 172 191 200 202 221 232 243 246 247
131 203 202 171 146 159 149 129 134 166 201 233 192 199 247 245 237 221 207 190 170 156 147 144 139 130 121 111 105 101 106 97 87 107 122 154 181 190 204 220 229 240 245 248
156 180 197 183 170 163 168 153 165 179 192 232 194 222 251 273 271 208 172 157 148 146 145 146 147 143 134 121 108 104 104 94 78 88 90 88 130 175 210 224 227 232 239 245
166 171 159 166 138 143 149 174 167 132 141 176 234 260 299 359 64 114 129 135 144 147 144 141 139 134 130 124 113 110 106 92 74 79 83 66 57 70 78 54 153 244 274 260
148 144 145 128 103 75 145 146 131 152 166 209 250 245 233 216 189 158 149 148 148 142 138 136 135 132 122 114 101 92 93 90 76 71 74 76 55 52 59 66 57 45 24 14
138 130 127 132 183 174 154 158 163 167 185 172 222 260 226 208 197 178 171 162 156 153 151 146 139 127 116 103 95 92 87 83 76 75 73 69 59 58 61 60 50 44 39 39
154 125 136 188 249 186 178 180 165 171 206 186 188 264 292 217 186 169 167 167 162 157 153 148 140 126 116 109 103 98 93 90 86 87 83 76 68 66 64 57 48 50 50 47
150 133 125 109 277 205 201 198 190 167 141 167 180 262 332 105 147 161 160 162 159 156 151 144 141 140 138 131 122 111 104 103 96 95 90 80 72 70 67 61 56 56 58 57
139 150 177 188 201 177 191 199 190 172 182 203 217 239 279 163 160 168 168 167 164 167 164 160 160 159 156 148 140 130 118 112 108 102 95 86 78 76 74 70 66 63 65 66
124 173 205 222 192 165 188 198 194 199 199 200 227 220 226 206 188 183 177 170 166 173 176 177 175 172 166 156 150 142 132 121 115 109 102 96 87 80 77 73 69 68 70 72
104 165 155 313 195 188 209 211 205 213 217 223 235 249 236 208 180 181 184 179 184 191 191 185 179 175 175 172 166 153 144 136 125 119 114 107 99 90 85 82 79 78 75 73
168 158 135 272 330 61 258 224 208 206 206 201 225 234 192 181 191 194 195 193 195 195 190 185 184 185 184 179 167 160 153 139 129 125 121 115 110 103 98 96 90 86 82 79
177 147 143 160 90 235 250 247 203 206 226 217 219 215 196 204 202 194 192 190 195 192 185 184 181 176 171 163 154 148 144 140 137 134 129 126 123 117 108 103 98 93 89 86
175 160 154 159 215 276 290 268 182 184 248 229 216 214 194 171 125 342 243 187 188 185 176 174 168 163 157 158 154 146 144 143 143 145 144 142 137 131 124 118 111 104 100 92
133 129 150 167 196 242 266 286 200 123 269 280 200 193 172 143 170 226 191 147 142 138 141 145 141 142 153 159 151 148 151 152 156 154 149 145 141 138 135 131 123 113 111 106
157 164 185 192 226 267 265 260 103 159 246 318 144 159 154 169 195 172 135 124 132 135 139 141 144 154 166 160 153 155 158 165 158 146 142 141 140 140 138 132 126 124 118 111
180 184 194 179 211 255 267 135 174 207 162 86 88 105 124 127 116 121 132 140 144 142 145 149 153 163 163 160 158 161 169 161 148 144 144 144 144 145 142 134 129 128 129 126
200 194 192 197 216 250 210 176 188 147 130 114 105 95 111 122 144 154 165 170 174 175 173 168 168 169 170 171 168 170 169 156 151 149 151 149 146 143 146 145 144 143 147 150
272 202 175 228 254 248 217 131 88 108 121 107 107 110 117 141 162 172 184 194 196 193 187 178 174 179 184 182 178 173 164 161 158 159 158 155 152 151 151 154 159 163 170 171
263 235 208 240 258 265 282 188 153 111 97 87 75 81 102 125 175 201 216 219 211 205 195 188 191 194 192 183 181 174 168 164 164 165 165 164 163 160 158 161 175 178 191 188
233 209 203 228 220 202 213 197 152 131 126 120 104 60 31 75 242 240 241 233 218 209 200 199 202 199 192 185 185 181 176 172 170 173 175 174 169 165 161 155 151 185 189 201
Height
1476 1480 1479 1479 1480 1481 1483 1487 1490 1490 1488 1491 1494 1494 1492 1490 1492 1492 1493 1494 1496 1498 1501 1503 1506 1508 1510 1512 1514 1516 1519 1521 1523 1525 1527 1529 1530 1532 1534 1535 1537 1538 1539 1540
1479 1479 1477 1478 1479 1480 1483 1488 1490 1489 1487 1490 1494 1493 1490 1488 1489 1489 1490 1491 1492 1495 1497 1499 1502 1504 1506 1508 1510 1512 1515 1517 1519 1521 1523 1525 1527 1528 1530 1531 1533 1534 1535 1536
1477 1476 1475 1477 1479 1482 1484 1487 1489 1490 1488 1490 1494 1495 1490 1485 1485 1485 1486 1487 1488 1490 1492 1495 1497 1500 1502 1504 1506 1508 1510 1512 1514 1517 1519 1521 1523 1524 1525 1526 1527 1529 1530 1531
1475 1474 1475 1477 1479 1481 1484 1482 1485 1487 1493 1496 1495 1502 1490 1484 1482 1480 1480 1481 1483 1486 1488 1491 1493 1496 1498 1500 1503 1505 1507 1508 1510 1512 1514 1516 1517 1518 1519 1521 1523 1524 1525 1526
1475 1473 1474 1476 1477 1479 1481 1480 1483 1487 1492 1496 1495 1500 1491 1481 1480 1474 1473 1475 1478 1482 1485 1487 1489 1492 1494 1497 1499 1501 1503 1505 1506 1508 1509 1511 1512 1514 1515 1517 1518 1519 1520 1520
1473 1473 1473 1474 1476 1477 1478 1482 1486 1490 1494 1498 1494 1498 1490 1480 1472 1468 1468 1470 1474 1478 1481 1484 1487 1489 1491 1493 1495 1497 1499 1501 1502 1503 1505 1506 1507 1509 1510 1511 1512 1513 1514 1514
1474 1473 1473 1473 1476 1478 1479 1486 1493 1495 1497 1496 1489 1491 1482 1469 1464 1462 1463 1465 1469 1474 1477 1481 1484 1486 1488 1490 1492 1494 1495 1497 1498 1499 1500 1502 1503 1504 1505 1506 1507 1507 1508 1508
1474 1475 1472 1471 1472 1475 1478 1483 1491 1493 1495 1494 1488 1487 1474 1464 1459 1458 1459 1463 1467 1471 1475 1478 1481 1484 1486 1487 1489 1490 1492 1493 1494 1495 1496 1497 1498 1499 1500 1500 1501 1502 1502 1502
1470 1472 1470 1470 1470 1473 1478 1482 1483 1490 1491 1493 1487 1478 1469 1462 1460 1459 1460 1463 1466 1470 1473 1477 1479 1482 1483 1485 1486 1487 1488 1490 1491 1492 1493 1493 1494 1494 1495 1495 1496 1496 1496 1497
1467 1470 1469 1469 1471 1473 1475 1478 1485 1490 1491 1488 1481 1476 1472 1465 1463 1462 1462 1464 1466 1470 1473 1476 1478 1480 1482 1483 1484 1485 1486 1487 1488 1488 1489 1489 1490 1490 1490 1491 1491 1491 1491 1491
1465 1468 1471 1471 1472 1472 1476 1478 1480 1484 1485 1488 1486 1477 1461 1461 1461 1462 1463 1464 1467 1470 1473 1475 1477 1479 1480 1481 1482 1483 1483 1484 1485 1485 1486 1486 1486 1486 1487 1487 1487 1487 1487 1487
1463 1469 1472 1472 1471 1470 1471 1473 1477 1483 1484 1485 1486 1476 1456 1456 1458 1460 1463 1465 1467 1470 1472 1475 1476 1478 1479 1479 1480 1481 1481 1482 1482 1483 1483 1483 1483 1483 1483 1483 1483 1483 1483 1483
1461 1468 1473 1474 1476 1472 1471 1470 1471 1474 1479 1485 1486 1473 1457 1456 1458 1460 1462 1465 1467 1470 1472 1474 1475 1476 1477 1478 1478 1479 1479 1479 1480 1480 1480 1480 1480 1480 1480 1480 1480 1480 1479 1479
1458 1464 1468 1470 1466 1466 1468 1467 1468 1472 1479 1479 1476 1467 1461 1459 1460 1461 1462 1464 1467 1469 1471 1472 1474 1475 1475 1476 1476 1476 1477 1477 1477 1477 1477 1478 1477 1477 1477 1477 1477 1477 1477 1477
1458 1461 1460 1460 1459 1461 1462 1463 1464 1467 1469 1472 1466 1463 1459 1458 1458 1459 1461 1463 1466 1468 1469 1470 1471 1472 1473 1474 1474 1474 1474 1475 1475 1475 1475 1475 1475 1475 1475 1475 1475 1475 1475 1475
1458 1460 1459 1459 1457 1458 1459 1459 1460 1461 1462 1462 1462 1459 1454 1454 1456 1458 1460 1462 1464 1465 1467 1468 1469 1470 1471 1471 1471 1472 1472 1472 1473 1473 1473 1473 1473 1473 1473 1473 1473 1474 1474 1474
1459 1460 1462 1465 1459 1458 1462 1455 1455 1456 1455 1456 1457 1454 1453 1454 1455 1456 1458 1460 1461 1463 1464 1465 1467 1467 1468 1469 1469 1469 1470 1470 1470 1471 1471 1471 1471 1471 1472 1472 1472 1473 1473 1473
1459 1460 1464 1465 1464 1466 1456 1448 1448 1450 1450 1450 1449 1448 1449 1450 1452 1454 1456 1457 1459 1460 1462 1463 1464 1465 1466 1466 1467 1467 1467 1468 1468 1468 1469 1469 1469 1470 1470 1471 1472 1472 1472 1472
1456 1458 1462 1466 1466 1461 1451 1446 1446 1449 1449 1446 1446 1446 1447 1449 1452 1453 1454 1455 1457 1458 1460 1461 1462 1462 1463 1463 1464 1464 1465 1465 1466 1467 1467 1468 1468 1469 1470 1470 1471 1471 1471 1472
1455 1457 1462 1464 1464 1462 1451 1445 1443 1447 1449 1444 1443 1444 1446 1448 1454 1453 1453 1454 1455 1456 1457 1458 1459 1459 1460 1461 1461 1462 1462 1463 1464 1465 1466 1466 1467 1468 1469 1469 1470 1470 1471 1471
1457 1458 1460 1461 1462 1456 1447 1444 1445 1453 1449 1444 1442 1443 1445 1447 1449 1450 1451 1452 1453 1454 1455 1456 1456 1457 1457 1458 1459 1459 1460 1461 1462 1463 1464 1465 1466 1467 1468 1469 1469 1470 1471 1471
1455 1457 1458 1458 1460 1457 1444 1444 1447 1447 1444 1444 1443 1444 1445 1446 1448 1449 1450 1451 1452 1452 1453 1454 1454 1454 1455 1456 1456 1457 1458 1459 1460 1461 1463 1464 1465 1466 1467 1468 1469 1469 1470 1471
1451 1451 1451 1452 1452 1445 1443 1443 1443 1443 1444 1444 1445 1445 1446 1447 1448 1448 1449 1450 1450 1451 1451 1452 1452 1452 1453 1453 1454 1455 1456 1458 1459 1460 1461 1463 1464 1465 1466 1467 1468 1469 1469 1470
1448 1446 1448 1448 1445 1444 1443 1443 1443 1444 1444 1445 1445 1446 1446 1447 1447 1448 1448 1448 1449 1449 1449 1449 1450 1450 1450 1451 1452 1453 1455 1456 1457 1458 1460 1461 1462 1463 1465 1466 1467 1468 1468 1469
1448 1446 1446 1445 1444 1443 1442 1442 1443 1444 1444 1445 1445 1445 1446 1446 1446 1446 1446 1446 1446 1446 1447 1447 1447 1447 1448 1449 1450 1451 1452 1453 1455 1456 1458 1459 1460 1462 1463 1464 1466 1467 1467 1468
1446 1445 1445 1444 1441 1442 1441 1441 1442 1443 1443 1444 1444 1444 1444 1444 1444 1444 1444 1443 1443 1443 1443 1444 1444 1444 1445 1446 1447 1448 1449 1451 1452 1454 1455 1457 1458 1460 1461 1463 1464 1464 1465 1466